Regional Weather Roundup
Issued by NWS

Home | Current Version | Previous Version | Text Only | Print | Product List | Glossary On
Versions: 1 2 3 4 5 6 7 8 9 10 11 12 13 14 15 16 17 18 19 20 21 22 23 24 25 26 27 28 29 30 31 32 33 34 35 36 37 38 39 40 41 42 43 44 45 46 47 48 49 50
000
ASUS44 KMEG 240510
RWRTN
TENNESSEE HOURLY STATE WEATHER ROUNDUP
NATIONAL WEATHER SERVICE MEMPHIS TN
1200 AM CDT FRI MAR 24 2017

TNZ002-004-019-021-049-052-054-088>092-240600-
WEST TENNESSEE

CITY           SKY/WX    TMP DP  RH WIND       PRES   REMARKS
MEMPHIS INTL   CLEAR     70  53  54 S14G20    30.11R
NWS MEMPHIS      N/A     70 N/A N/A MISG        N/A
JACKSON        CLEAR     69  52  54 S12G18    30.13F
DYERSBURG      CLEAR     67  52  58 S6        30.11S
SOMERVILLE     PTCLDY    70  54  56 S9        30.12S
BOLIVAR        CLOUDY    68  52  56 SE10G18   30.13F
PARIS          CLEAR     63  48  59 S12       30.13S
HUNTINGDON     PTCLDY    64  50  59 S9        30.12F
SAVANNAH       MOCLDY    68  54  60 S10G18    30.16S
$$

TNZ008-025-027-028-033-062-065-066-240600-
NORTH MIDDLE TENNESSEE

CITY           SKY/WX    TMP DP  RH WIND       PRES   REMARKS
NASHVILLE      CLEAR     62  43  49 S14G22    30.23R
PORTLAND       MOCLDY    59  43  55 S16       30.21S
CLARKSVILLE    CLEAR     61  44  53 S8        30.16S
SMYRNA         CLEAR     61  43  51 S9        30.25S
COOKEVILLE     PTCLDY    55  37  50 S13G21    30.28S
GALLATIN       MOCLDY    61  43  51 SE10      30.26R
CROSSVILLE     CLEAR     53  35  50 S12G21    30.33S
$$

TNZ061-075-076-078-094-096-097-240600-
SOUTH MIDDLE TENNESSEE

CITY           SKY/WX    TMP DP  RH WIND       PRES   REMARKS
FAYETTEVILLE   PTCLDY    61  45  55 S14G24    30.28S
TULLAHOMA      CLEAR     57  37  47 SE13      30.29S
WINCHESTER     CLEAR     57  39  51 SE16      30.29F
MCMINNVILLE    CLEAR     57  39  51 S3        30.28F
COLUMBIA       CLEAR     63  48  59 SE12      30.20F
SHELBYVILLE    CLEAR     63  45  51 S14       30.27S
$$

TNZ017-018-042-046-047-240600-
NORTHEAST TENNESSEE

CITY           SKY/WX    TMP DP  RH WIND       PRES   REMARKS
TRI CITIES     MOCLDY    51  26  37 VRB6      30.37S
$$

TNZ012-013-036-069-073-074-240600-
CENTRAL EAST TENNESSEE

CITY           SKY/WX    TMP DP  RH WIND       PRES   REMARKS
KNOXVILLE      PTCLDY    54  37  52 SW9       30.33F
OAK RIDGE      CLEAR     56  35  45 W3        30.36S
DOWNTOWN KNOXV PTCLDY    54  41  62 W5        30.34S
GATLINBURG     CLEAR     46  37  71 CALM      30.33S
MORRISTOWN     MOCLDY    50  32  50 CALM      30.34R
JACKSBORO      CLEAR     59  39  47 S12       30.36R
$$

TNZ083-085-099-240600-
SOUTHEAST TENNESSEE

CITY           SKY/WX    TMP DP  RH WIND       PRES   REMARKS
CHATTANOOGA    PTCLDY    59  35  40 SE9       30.37S
$$

SKY/WX REPORTED AS FAIR MEANS FEW OR NO CLOUDS BELOW
12 THOUSAND FEET.




USA.gov is the U.S. government's official web portal to all federal, state and local government web resources and services.